N3CAN-10 Weather Reports


time (UTC)temp
C
wind
direction
speed
KPH
gust
KPH
rain 1hr
cm
rain 24hr
cm
rain mn
cm
humidity
%
barometer
mb
20260504220501 20 0.0 0.0 0.00 0.00 0.00 27
20260504213501 21 0.0 0.0 0.00 0.00 0.00 27
20260504210502 21 0.0 0.0 0.00 0.00 0.00 27
20260504203502 21 0.0 0.0 0.00 0.00 0.00 26
20260504200502 21 0.0 0.0 0.00 0.00 0.00 28
20260504193501 21 0.0 0.0 0.00 0.00 0.00 29
20260504190501 20 0.0 0.0 0.00 0.00 0.00 29
20260504183501 20 0.0 0.0 0.00 0.00 0.00 28
20260504180501 20 0.0 0.0 0.00 0.00 0.00 28
20260504173501 21 0.0 0.0 0.00 0.00 0.00 26
20260504170501 22 0.0 0.0 0.00 0.00 0.00 27
20260504150502 17 0.0 0.0 0.00 0.00 0.00 42
20260504140501 13 0.0 0.0 0.00 0.00 0.00 52
20260504130501 10 0.0 0.0 0.00 0.00 0.00 63
20260504110502 5 0.0 0.0 0.00 0.00 0.00 69
20260504100502 4 0.0 0.0 0.00 0.00 0.00 67
20260504080502 3 0.0 0.0 0.00 0.00 0.00 65
20260504050501 1 0.0 0.0 0.00 0.00 0.00 57
20260504043501 2 0.0 0.0 0.00 0.00 0.00 56
20260504040501 2 0.0 0.0 0.00 0.00 0.00 55
20260504033502 3 0.0 0.0 0.00 0.00 0.00 52
20260504030502 3 0.0 0.0 0.00 0.00 0.00 52
20260504023502 4 0.0 0.0 0.00 0.00 0.00 48
20260504020501 4 0.0 0.0 0.00 0.00 0.00 47
20260504013501 5 0.0 0.0 0.00 0.00 0.00 46
20260504010501 6 0.0 0.0 0.00 0.00 0.00 45
20260504003501 7 0.0 0.0 0.00 0.00 0.00 45
20260504000501 8 0.0 0.0 0.00 0.00 0.00 44
20260503233501 8 0.0 0.0 0.00 0.00 0.00 43
20260503230502 9 0.0 0.0 0.00 0.00 0.00 43
20260503223502 9 0.0 0.0 0.00 0.00 0.00 41